Fargo, ND

3:45 PM CST on January 20, 2017 (GMT -0600)
Hector International

Weather History for KFAR - August, 2012

Change the Weather History Date:

Thursday, August 16, 2012

  Actual Average Record
Temperature  
Mean Temperature 60 °F 70 °F  
Max Temperature 72 °F 82 °F 104 °F (1988)
Min Temperature 48 °F 58 °F 40 °F (1896)
Degree Days  
Heating Degree Days 5 1  
Month to date heating degree days 8 12  
Since 1 June heating degree days 28 101  
Since 1 July heating degree days 8 28  
Cooling Degree Days 0 6  
Month to date cooling degree days 69 102  
Year to date cooling degree days 668 442  
Since 1 June cooling degree days 610 411  
Growing Degree Days 13 (Base 50)    
Moisture  
Dew Point 45 °F    
Average Humidity 59    
Maximum Humidity 83    
Minimum Humidity 34    
Precipitation  
Precipitation 0.00 in 0.08 in 2.33 in (1912)
Month to date precipitation 0.91 1.17  
Year to date precipitation 11.21 14.67  
Snow  
Snow 0.00 in 0.00 in 0.00 in ()
Month to date snowfall 0.0 0.0  
Since 1 June snowfall 0.0 0.0  
Since 1 July snowfall 0.0 0.0  
Snow Depth 0.00 in    
Sea Level Pressure  
Sea Level Pressure 30.01 in    
Wind  
Wind Speed 14 mph (NW)    
Max Wind Speed 24 mph    
Max Gust Speed 31 mph    
Visibility 10 miles    
Events      
T = Trace of Precipitation, MM = Missing Value Source: NWS Daily Summary

Daily Weather History Graph

Daily Weather History Graph

Search for Another Location

Airport or City:

Trip Planner

Search our weather history database for the weather conditions in past years. The results will help you decide how hot, cold, wet, or windy it might be!

Date:

Astronomy

Aug. 16, 2012 Rise Set
Actual Time 6:26 AM CDT 8:35 PM CDT
Civil Twilight 5:53 AM CDT 9:08 PM CDT
Nautical Twilight 5:12 AM CDT 9:49 PM CDT
Astronomical Twilight 4:26 AM CDT 10:34 PM CDT
Moon 5:26 AM CDT (8/16) 7:42 PM CDT (8/16)
Length of Visible Light 15h 14m
Length of Day
14h 08m
Waning Crescent, 1% of the Moon is Illuminated
Aug 16
Waning Crescent
Aug 17
New
Aug 24
First Quarter
Aug 31
Full
Sep 8
Last Quarter

Hourly Weather History & Observations

Time (CDT) Temp. Dew Point Humidity Pressure Visibility Wind Dir Wind Speed Gust Speed Precip Events Conditions
12:53 AM 60.1 °F 50.0 °F 69% 29.91 in 10.0 mi NNW 18.4 mph 24.2 mph N/A   Overcast
1:53 AM 59.0 °F 50.0 °F 72% 29.92 in 10.0 mi WNW 12.7 mph - N/A   Mostly Cloudy
2:53 AM 59.0 °F 48.9 °F 69% 29.93 in 10.0 mi NW 16.1 mph - N/A   Overcast
3:00 AM 59.0 °F 48.2 °F 67% 29.93 in 10.0 mi NW 13.8 mph - N/A   Overcast
3:40 AM 57.2 °F 48.2 °F 72% 29.94 in 10.0 mi WNW 13.8 mph - N/A   Overcast
3:53 AM 57.9 °F 48.0 °F 70% 29.94 in 10.0 mi NW 13.8 mph - N/A   Overcast
4:53 AM 57.9 °F 48.0 °F 70% 29.95 in 10.0 mi WNW 10.4 mph - N/A   Overcast
5:53 AM 55.9 °F 48.0 °F 75% 29.97 in 10.0 mi WNW 10.4 mph - N/A   Mostly Cloudy
6:53 AM 54.0 °F 48.0 °F 80% 29.98 in 10.0 mi WNW 11.5 mph - N/A   Scattered Clouds
7:53 AM 55.9 °F 46.9 °F 72% 29.99 in 10.0 mi NW 16.1 mph 21.9 mph N/A   Partly Cloudy
8:53 AM 59.0 °F 46.0 °F 62% 30.01 in 10.0 mi NW 20.7 mph 26.5 mph N/A   Partly Cloudy
9:53 AM 62.1 °F 46.9 °F 58% 30.02 in 10.0 mi NNW 19.6 mph - N/A   Clear
10:53 AM 63.0 °F 46.0 °F 54% 30.04 in 10.0 mi NW 16.1 mph 27.6 mph N/A   Mostly Cloudy
11:53 AM 64.9 °F 45.0 °F 48% 30.04 in 10.0 mi NNW 19.6 mph 25.3 mph N/A   Mostly Cloudy
12:53 PM 66.9 °F 44.1 °F 44% 30.05 in 10.0 mi NNW 17.3 mph 26.5 mph N/A   Mostly Cloudy
1:53 PM 69.1 °F 43.0 °F 39% 30.05 in 10.0 mi NW 21.9 mph 26.5 mph N/A   Partly Cloudy
2:53 PM 70.0 °F 42.1 °F 36% 30.04 in 10.0 mi NW 18.4 mph 26.5 mph N/A   Clear
3:53 PM 72.0 °F 41.0 °F 33% 30.04 in 10.0 mi NNW 20.7 mph 28.8 mph N/A   Clear
4:53 PM 71.1 °F 42.1 °F 35% 30.04 in 10.0 mi NNW 17.3 mph 24.2 mph N/A   Clear
5:53 PM 71.1 °F 41.0 °F 34% 30.04 in 10.0 mi NNW 18.4 mph 24.2 mph N/A   Clear
6:53 PM 70.0 °F 41.0 °F 35% 30.04 in 10.0 mi North 18.4 mph - N/A   Clear
7:53 PM 66.0 °F 41.0 °F 40% 30.05 in 10.0 mi North 9.2 mph - N/A   Clear
8:53 PM 57.0 °F 42.1 °F 57% 30.06 in 10.0 mi North 8.1 mph - N/A   Clear
9:53 PM 55.0 °F 42.1 °F 62% 30.09 in 10.0 mi NNW 4.6 mph - N/A   Clear
10:53 PM 54.0 °F 43.0 °F 66% 30.10 in 10.0 mi NNW 5.8 mph - N/A   Clear
11:53 PM 50.0 °F 42.1 °F 74% 30.10 in 10.0 mi WNW 4.6 mph - N/A   Clear